DW9945 Weather Reports


Display with metric or nautical units.
time (UTC)temp
F
wind
direction
speed
MPH
gust
MPH
rain 1hr
in
rain 24hr
in
rain mn
in
humidity
%
barometer
mb
20260503190008 61 264 1.0 3.0 0.00 0.17 0.17 66 1010.8
20260503185507 61 282 2.0 7.0 0.00 0.17 0.17 65 1010.7
20260503185007 62 287 1.0 7.0 0.00 0.17 0.17 64 1010.7
20260503184508 62 260 3.0 7.0 0.00 0.17 0.17 63 1010.8
20260503184011 62 251 3.0 7.0 0.00 0.17 0.17 63 1010.7
20260503183507 62 252 2.0 3.0 0.00 0.17 0.17 64 1010.7
20260503183011 62 294 1.0 8.0 0.00 0.17 0.17 63 1010.7
20260503182509 63 282 5.0 9.0 0.00 0.17 0.17 61 1010.6
20260503182007 63 276 2.0 7.0 0.00 0.17 0.17 59 1010.6
20260503181507 64 277 3.0 9.0 0.00 0.17 0.17 58 1010.6
20260503180507 64 274 3.0 12.0 0.00 0.17 0.17 57 1010.6
20260503180007 65 278 2.0 8.0 0.00 0.17 0.17 57 1010.6
20260503175007 65 269 4.0 12.0 0.00 0.17 0.17 55 1010.6
20260503174507 65 251 7.0 12.0 0.00 0.17 0.17 54 1010.5
20260503174006 66 281 5.0 13.0 0.00 0.17 0.17 54 1010.5
20260503173507 66 293 5.0 12.0 0.00 0.17 0.17 54 1010.5
20260503173007 66 276 5.0 13.0 0.00 0.17 0.17 54 1010.6
20260503172507 66 242 5.0 12.0 0.00 0.17 0.17 55 1010.6
20260503172007 65 264 6.0 12.0 0.00 0.17 0.17 53 1010.5
20260503171507 66 272 7.0 15.0 0.00 0.17 0.17 51 1010.5
20260503171007 66 283 5.0 12.0 0.00 0.17 0.17 55 1010.5
20260503170507 66 265 5.0 12.0 0.00 0.17 0.17 55 1010.7
20260503151006 67 280 7.0 12.0 0.00 0.17 0.17 53 1010.6
20260503150507 67 257 6.0 15.0 0.00 0.17 0.17 52 1010.6
20260503131006 67 226 9.0 16.0 0.00 0.17 0.17 55 1011.5
20260503130507 66 247 7.0 17.0 0.00 0.24 0.17 56 1011.6
20260503110507 64 237 7.0 12.0 0.00 0.41 0.17 70 1012.9
20260503090508 59 195 3.0 8.0 0.00 0.43 0.17 89 1013.9
20260503081508 57 227 2.0 3.0 0.00 0.45 0.17 92 1013.9
20260503081008 57 223 0.0 3.0 0.00 0.45 0.17 93 1013.9
20260503080508 56 245 2.0 5.0 0.00 0.46 0.17 93 1013.9
20260503072508 54 246 2.0 3.0 0.13 0.54 0.17 93 1013.8
20260503071508 54 240 2.0 3.0 0.13 0.54 0.17 93 1013.8
20260503071008 54 264 2.0 6.0 0.13 0.54 0.17 94 1013.8
20260503070508 54 273 1.0 3.0 0.13 0.54 0.17 94 1013.7
20260503055008 52 24 0.0 0.0 0.00 0.48 0.03 93 1013.2
20260503054508 52 24 0.0 0.0 0.00 0.48 0.03 93 1013.0
20260503053507 52 24 0.0 0.0 0.00 0.48 0.03 93 1013.2
20260503053008 52 24 0.0 0.0 0.00 0.48 0.03 92 1013.2
20260503052508 53 24 0.0 0.0 0.00 0.48 0.03 93 1013.2
20260503052008 53 24 0.0 0.0 0.00 0.48 0.03 93 1013.1
20260503051508 52 24 0.0 0.0 0.00 0.48 0.03 93 1013.3
20260503051008 52 24 0.0 0.0 0.00 0.48 0.03 92 1013.4
20260503050507 52 24 0.0 0.0 0.00 0.48 0.03 92 1013.5
20260503050008 52 24 0.0 0.0 0.00 0.48 0.03 92 1013.4
20260503045007 53 24 0.0 0.0 0.00 0.48 0.03 92 1013.3
20260503044510 53 24 0.0 0.0 0.00 0.48 0.03 92 1013.3
20260503044008 53 24 0.0 0.0 0.00 0.48 0.03 93 1013.2
20260503043508 53 24 0.0 0.0 0.00 0.48 0.03 93 1013.2
20260503042507 53 24 0.0 0.0 0.00 0.48 0.03 92 1013.3
20260503042008 53 24 0.0 0.0 0.00 0.48 0.03 93 1013.3
20260503041507 53 24 0.0 0.0 0.00 0.48 0.03 93 1013.4
20260503040008 52 24 0.0 0.0 0.00 0.48 0.03 93 1013.4
20260503035507 53 24 0.0 0.0 0.00 0.48 0.03 93 1013.5
20260503035007 53 24 0.0 0.0 0.00 0.48 0.03 93 1013.5
20260503034508 53 24 0.0 0.0 0.00 0.48 0.03 93 1013.5
20260503034008 53 24 0.0 1.0 0.00 0.48 0.03 93 1013.6
20260503033508 53 24 1.0 2.0 0.00 0.48 0.03 93 1013.7
20260503033008 53 24 2.0 3.0 0.00 0.48 0.03 93 1013.8
20260503032508 53 24 1.0 3.0 0.00 0.48 0.03 93 1013.9
20260503032007 53 24 2.0 3.0 0.00 0.48 0.03 93 1013.9
20260503031508 53 24 2.0 3.0 0.00 0.48 0.03 93 1013.8
20260503031007 53 24 0.0 1.0 0.00 0.48 0.03 93 1013.8
20260503030508 53 24 0.0 0.0 0.00 0.48 0.03 93 1013.8
20260503030008 53 24 1.0 2.0 0.00 0.48 0.03 93 1013.8
20260503025507 53 24 2.0 3.0 0.00 0.48 0.03 93 1013.8
20260503025007 53 24 0.0 0.0 0.00 0.48 0.03 93 1013.8
20260503024508 53 24 0.0 0.0 0.00 0.48 0.03 93 1013.9
20260503023508 53 24 2.0 3.0 0.00 0.48 0.03 92 1013.9
20260503023008 53 24 2.0 3.0 0.00 0.48 0.03 92 1013.9
20260503022507 53 24 2.0 3.0 0.00 0.48 0.03 92 1014.0
20260503022007 53 24 3.0 3.0 0.00 0.48 0.03 92 1014.0
20260503021508 53 24 1.0 3.0 0.00 0.48 0.03 91 1014.0
20260503021007 53 134 0.0 0.0 0.00 0.48 0.03 91 1014.1
20260503020007 54 144 0.0 0.0 0.00 0.48 0.03 91 1014.0
20260503015508 54 144 0.0 0.0 0.00 0.48 0.03 91 1014.0
20260503015007 54 144 0.0 0.0 0.00 0.48 0.03 91 1014.0
20260503014507 54 144 0.0 0.0 0.00 0.48 0.03 91 1014.0
20260503014007 54 144 0.0 0.0 0.00 0.48 0.03 92 1014.1
20260503013508 54 144 0.0 0.0 0.00 0.48 0.03 92 1014.1
20260503013007 54 144 0.0 0.0 0.00 0.48 0.03 91 1014.1
20260503012508 54 144 0.0 0.0 0.00 0.48 0.03 91 1014.1
20260503011508 55 144 0.0 0.0 0.00 0.48 0.03 91 1014.1
20260503011008 55 144 0.0 0.0 0.00 0.48 0.03 91 1014.1
20260503010508 55 144 0.0 0.0 0.00 0.48 0.03 91 1014.2
20260503010013 55 144 0.0 0.0 0.00 0.48 0.03 91 1014.3
20260503005508 55 144 0.0 0.0 0.00 0.48 0.03 91 1014.3
20260503005007 55 144 0.0 0.0 0.00 0.48 0.03 91 1014.3
20260503003507 55 144 0.0 0.0 0.00 0.48 0.03 91 1014.4
20260503003007 55 144 0.0 0.0 0.00 0.48 0.03 90 1014.5
20260503002508 55 144 0.0 0.0 0.00 0.48 0.03 90 1014.5
20260503002007 55 144 0.0 0.0 0.00 0.48 0.03 90 1014.5
20260503000508 56 144 0.0 0.0 0.00 0.48 0.03 89 1014.6
20260502235509 56 144 0.0 0.0 0.00 0.48 0.03 89 1014.7
20260502234507 56 144 0.0 0.0 0.00 0.48 0.03 89 1014.8
20260502234008 56 144 1.0 3.0 0.00 0.48 0.03 89 1014.9
20260502233008 56 142 2.0 7.0 0.00 0.48 0.03 89 1014.8
20260502232507 56 9 0.0 0.0 0.00 0.48 0.03 89 1014.7
20260502231508 56 9 0.0 3.0 0.03 0.48 0.03 89 1014.8
20260502231007 56 9 2.0 3.0 0.03 0.48 0.03 89 1014.8
20260502230508 56 342 3.0 5.0 0.03 0.48 0.03 88 1014.8
20260502230007 56 321 2.0 3.0 0.03 0.48 0.03 87 1014.8
20260502225507 56 321 1.0 6.0 0.03 0.48 0.03 87 1014.9
20260502225007 56 327 5.0 6.0 0.03 0.48 0.03 87 1014.8
20260502223508 57 149 2.0 5.0 0.03 0.48 0.03 86 1014.7
20260502223007 57 170 2.0 3.0 0.03 0.48 0.03 85 1014.9
20260502222508 57 141 2.0 5.0 0.03 0.48 0.03 84 1014.9
20260502222008 58 170 2.0 5.0 0.02 0.46 0.02 82 1015.2
20260502221507 58 221 4.0 6.0 0.00 0.45 0.00 82 1015.3
20260502221007 57 196 3.0 5.0 0.00 0.45 0.00 83 1015.1
20260502220508 57 207 0.0 3.0 0.00 0.45 0.00 85 1014.9
20260502220007 56 210 0.0 0.0 0.00 0.45 0.00 86 1014.9
20260502215007 56 210 0.0 0.0 0.00 0.45 0.45 85 1015.1
20260502214507 55 210 0.0 0.0 0.00 0.45 0.45 85 1015.1
20260502214007 56 210 0.0 0.0 0.00 0.45 0.45 85 1015.1
20260502213507 56 210 0.0 0.0 0.00 0.45 0.45 85 1015.2
20260502213007 56 210 0.0 0.0 0.00 0.45 0.45 86 1015.1
20260502212507 56 210 0.0 0.0 0.00 0.45 0.45 85 1015.0
20260502212007 56 210 0.0 0.0 0.00 0.45 0.45 84 1015.2
20260502211507 56 210 0.0 0.0 0.00 0.45 0.45 84 1014.9
20260502211007 57 210 0.0 0.0 0.00 0.45 0.45 82 1014.9
20260502210007 57 210 0.0 0.0 0.00 0.45 0.45 82 1014.9
20260502205506 57 210 0.0 0.0 0.00 0.45 0.45 82 1014.9
20260502205007 57 210 0.0 0.0 0.00 0.45 0.45 82 1014.8
20260502204507 57 210 0.0 0.0 0.00 0.45 0.45 83 1014.7
20260502204007 57 210 0.0 0.0 0.00 0.45 0.45 83 1014.7
20260502203507 57 210 0.0 3.0 0.00 0.45 0.45 85 1014.6
20260502203007 57 222 0.0 0.0 0.00 0.45 0.45 85 1014.6
20260502202507 57 222 0.0 0.0 0.00 0.45 0.45 84 1014.5
20260502202007 57 222 0.0 0.0 0.00 0.45 0.45 84 1014.5
20260502201507 57 222 0.0 0.0 0.00 0.45 0.45 84 1014.3
20260502201007 57 222 0.0 0.0 0.00 0.45 0.45 84 1014.3
20260502200007 57 222 0.0 0.0 0.00 0.45 0.45 83 1014.2
20260502195507 58 222 0.0 0.0 0.00 0.45 0.45 83 1014.2
20260502195007 58 222 0.0 0.0 0.00 0.45 0.45 82 1014.1
20260502194507 59 222 0.0 0.0 0.00 0.45 0.45 81 1013.9
20260502193508 60 214 2.0 3.0 0.00 0.45 0.45 79 1014.0
20260502193007 60 186 0.0 2.0 0.00 0.45 0.45 79 1014.0
20260502192507 60 186 0.0 0.0 0.00 0.45 0.45 79 1014.0
20260502192007 61 186 0.0 2.0 0.00 0.45 0.45 78 1013.9
20260502191507 61 186 0.0 2.0 0.00 0.45 0.45 78 1013.9
20260502191007 61 197 0.0 0.0 0.00 0.45 0.45 78 1013.8
20260502190507 61 211 2.0 3.0 0.00 0.45 0.45 78 1013.8